ASNARO (40298 NORAD) Tracking and Keplerian Element Data

This shows tracking and keplerian element data for the satellite.

Feedback or suggestion? Click here.




ElementValue
Catalog40298
NameASNARO
Epoch Orbit25242
Epoch Day146.49747406
Epoch Year2019
RAAN229.6992
Inclination97.4407
Eccentricity0.000155
Argument of Perigee97.5794
Mean Anonmoly357.7849
Mean Motion15.19621936
Decay Rate8.5E-06
L11 40298U 14070A 19146.49747406 .00000850 00000-0 43078-4 0 9996
L22 40298 97.4407 229.6992 0001550 97.5794 357.7849 15.19621936252428

Live tracking and technical data element details for ASNARO (NORAD 40298). ASNARO can be tracked NOW for your location showing map with azimuth and elevation plus other details from your city location.

Track the satellite on the map from your city or location and see movement details for azimuth, elevation, latitude, longitude, range, height, and movement on the map or in text.







IsCatalogInMostPopularTable: catalog: 40298, numindb: 212
Update: records affected: 1



GetName: 40298 ASNARO

Hit Count: updated at: Sun, 26 May 2019 20:03:46 GMT